Caldwell, NJ

11:18 PM EDT on May 24, 2018 (GMT -0400)
Essex County

Weather History for KCDW - September, 2013

Change the Weather History Date:

Thursday, September 12, 2013

  Actual Average Record
Temperature  
Mean Temperature 76 °F -  
Max Temperature 84 °F 79 °F 99 °F (1983)
Min Temperature 68 °F 52 °F 39 °F (1977)
Cooling Degree Days 11    
Growing Degree Days 26 (Base 50)    
Moisture  
Dew Point 69 °F    
Average Humidity 84    
Maximum Humidity 100    
Minimum Humidity 65    
Precipitation  
Precipitation 1.90 in - - ()
Sea Level Pressure  
Sea Level Pressure 29.81 in    
Wind  
Wind Speed 4 mph (West)    
Max Wind Speed 22 mph    
Max Gust Speed 41 mph    
Visibility 5 miles    
Events Fog , Rain    
Averages and records for this station are not official NWS values.
T = Trace of Precipitation, MM = Missing Value Source: NWS Daily Summary

Daily Weather History Graph

Daily Weather History Graph

Search for Another Location

Airport or City:

Astronomy

Sep. 12, 2013 Rise Set
Actual Time 6:34 AM EDT 7:10 PM EDT
Civil Twilight 6:07 AM EDT 7:38 PM EDT
Nautical Twilight 5:34 AM EDT 8:11 PM EDT
Astronomical Twilight 5:00 AM EDT 8:44 PM EDT
Moon 2:02 PM EDT (9/12) No Moon Set
Length of Visible Light 13h 31m
Length of Day
12h 35m
Waxing Crescent, 50% of the Moon is Illuminated
Sep 12
Waxing Crescent
Sep 12
First Quarter
Sep 19
Full
Sep 26
Last Quarter
Oct 4
New

Hourly Weather History & Observations

Time (EDT) Temp. Heat Index Dew Point Humidity Pressure Visibility Wind Dir Wind Speed Gust Speed Precip Events Conditions
12:53 AM 78.1 °F - 71.1 °F 79% 29.99 in 7.0 mi Calm Calm - N/A   Clear
1:53 AM 75.9 °F - 71.1 °F 85% 29.97 in 6.0 mi Calm Calm - N/A   Haze
2:53 AM 77.0 °F - 71.1 °F 82% 29.96 in 7.0 mi Calm Calm - N/A   Partly Cloudy
3:53 AM 75.9 °F - 70.0 °F 82% 29.96 in 6.0 mi Calm Calm - N/A   Haze
4:53 AM 75.0 °F - 69.1 °F 82% 29.96 in 6.0 mi Calm Calm - N/A   Haze
5:53 AM 73.9 °F - 69.1 °F 85% 29.95 in 6.0 mi Calm Calm - N/A   Haze
6:53 AM 73.9 °F - 69.1 °F 85% 29.95 in 4.0 mi Variable 3.5 mph - N/A   Haze
7:53 AM 75.0 °F - 69.1 °F 82% 29.95 in 5.0 mi Variable 3.5 mph - N/A   Haze
8:50 AM 75.2 °F - 69.8 °F 83% 29.92 in 5.0 mi SW 4.6 mph - N/A   Haze
8:53 AM 77.0 °F - 70.0 °F 79% 29.94 in 5.0 mi Variable 5.8 mph - N/A   Haze
9:17 AM 78.8 °F - 69.8 °F 74% 29.91 in 5.0 mi SW 4.6 mph - N/A   Haze
9:53 AM 79.0 °F - 71.1 °F 77% 29.91 in 6.0 mi South 8.1 mph - N/A   Haze
10:53 AM 82.0 °F 86.3 °F 71.1 °F 69% 29.90 in 7.0 mi WSW 4.6 mph - N/A   Partly Cloudy
11:53 AM 84.9 °F 90.7 °F 72.0 °F 65% 29.87 in 7.0 mi SW 9.2 mph - N/A   Mostly Cloudy
12:31 PM 73.4 °F - 66.2 °F 78% 29.87 in 1.8 mi WSW 12.7 mph 36.8 mph 0.06 in Rain Rain
12:40 PM 71.6 °F - 64.4 °F 78% 29.88 in 0.8 mi West 8.1 mph 25.3 mph 0.20 in Rain Heavy Rain
12:49 PM 69.8 °F - 64.4 °F 83% 29.87 in 1.8 mi Variable 4.6 mph - 0.24 in Rain Rain
12:53 PM 70.0 °F - 66.0 °F 87% 29.88 in 2.5 mi Calm Calm - 0.25 in Rain Rain
1:00 PM 69.8 °F - 66.2 °F 88% 29.86 in 7.0 mi North - - 0.00 in Rain Light Rain
1:53 PM 73.0 °F - 69.1 °F 87% 29.85 in 10.0 mi Calm Calm - 0.00 in   Partly Cloudy
2:53 PM 77.0 °F - 72.0 °F 84% 29.82 in 8.0 mi Calm Calm - N/A   Mostly Cloudy
3:53 PM 82.0 °F 87.9 °F 73.9 °F 76% 29.76 in 6.0 mi Variable 3.5 mph - N/A   Haze
4:53 PM 82.0 °F 87.9 °F 73.9 °F 76% 29.74 in 6.0 mi Variable 3.5 mph - N/A   Haze
5:53 PM 79.0 °F - 73.0 °F 82% 29.73 in 1.2 mi Calm Calm - 0.05 in Rain Heavy Rain
6:05 PM 78.8 °F - 73.4 °F 83% 29.70 in 3.0 mi SSE 3.5 mph - 0.01 in Rain Light Rain
6:22 PM 77.0 °F - 75.2 °F 94% 29.70 in 1.8 mi Calm Calm - 0.01 in   Overcast
6:34 PM 73.4 °F - 69.8 °F 88% 29.71 in 0.5 mi WSW 21.9 mph 33.4 mph 0.32 in Fog , Rain Heavy Rain
6:41 PM 73.4 °F - 66.2 °F 78% 29.73 in 0.5 mi North 20.7 mph 41.4 mph 0.74 in Rain Heavy Rain
6:50 PM 71.6 °F - 66.2 °F 83% 29.70 in 0.8 mi NNE 6.9 mph 24.2 mph 1.01 in Rain Light Rain
6:53 PM 71.1 °F - 66.9 °F 87% 29.74 in 1.5 mi WNW 20.7 mph 34.5 mph 1.02 in Rain Light Rain
6:55 PM 71.6 °F - 68.0 °F 88% 29.73 in 3.0 mi NW 19.6 mph 34.5 mph 0.00 in Rain Light Rain
6:59 PM 71.6 °F - 68.0 °F 88% 29.73 in 3.0 mi WNW 11.5 mph 34.5 mph 0.02 in Rain Rain
7:01 PM 69.8 °F - 68.0 °F 94% 29.72 in 1.8 mi WNW 20.7 mph 36.8 mph 0.10 in Rain Rain
7:06 PM 69.8 °F - 68.0 °F 94% 29.73 in 0.5 mi WNW 21.9 mph 36.8 mph 0.36 in Fog , Rain Heavy Rain
7:10 PM 69.8 °F - 68.0 °F 94% 29.75 in 0.5 mi West 12.7 mph 36.8 mph 0.45 in Fog , Rain Heavy Rain
7:16 PM 69.8 °F - - N/A% 29.73 in 1.2 mi West 6.9 mph 27.6 mph 0.52 in Rain Heavy Rain
7:24 PM 69.8 °F - - N/A% 29.73 in 3.0 mi Calm Calm - 0.55 in Rain Light Rain
7:27 PM 69.8 °F - - N/A% 29.73 in 3.0 mi Calm Calm - 0.55 in Rain Light Rain
7:37 PM 69.8 °F - - N/A% 29.74 in 9.0 mi Calm Calm - 0.56 in Rain Light Rain
7:53 PM 69.1 °F - - N/A% 29.76 in 10.0 mi ESE 4.6 mph - 0.56 in Rain Light Rain
8:53 PM 69.1 °F - - N/A% 29.75 in 10.0 mi SSW 3.5 mph - 0.02 in Rain Light Rain
9:53 PM 69.1 °F - - N/A% 29.75 in 9.0 mi Calm Calm - 0.00 in   Clear
10:36 PM 68.0 °F - - N/A% 29.73 in 7.0 mi Calm Calm - N/A   Partly Cloudy
10:53 PM 68.0 °F - - N/A% 29.74 in 6.0 mi Calm Calm - N/A   Haze
11:29 PM 68.0 °F - 68.0 °F 100% 29.72 in 7.0 mi Calm Calm - N/A   Scattered Clouds
11:53 PM 68.0 °F - 68.0 °F 100% 29.74 in 7.0 mi Calm Calm - N/A   Partly Cloudy